owner,sensor,date,latitude,longitude,vertical_datum,sea_water_practical_salinity,qcFlag 
NERRS,ioos:station:NOAA.NERRS:gndbcwq:1,2012-08-01T00:00:00Z,30.3836,-88.4364,0.0,15.6,1111122 
NERRS,ioos:station:NOAA.NERRS:gndbcwq:1,2012-08-01T01:00:00Z,30.3836,-88.4364,0.0,15.8,1111122 
NERRS,ioos:station:NOAA.NERRS:gndbcwq:1,2012-08-01T02:00:00Z,30.3836,-88.4364,0.0,17.0,1111122 
NERRS,ioos:station:NOAA.NERRS:gndbcwq:1,2012-08-01T03:00:00Z,30.3836,-88.4364,0.0,17.2,1111122 
NERRS,ioos:station:NOAA.NERRS:gndbcwq:1,2012-08-01T04:00:00Z,30.3836,-88.4364,0.0,16.2,1111122 
NERRS,ioos:station:NOAA.NERRS:gndbcwq:1,2012-08-01T05:00:00Z,30.3836,-88.4364,0.0,17.3,1111122 
NERRS,ioos:station:NOAA.NERRS:gndbcwq:1,2012-08-01T06:00:00Z,30.3836,-88.4364,0.0,18.2,1111122 
NERRS,ioos:station:NOAA.NERRS:gndbcwq:1,2012-08-01T07:00:00Z,30.3836,-88.4364,0.0,18.5,1111122 
NERRS,ioos:station:NOAA.NERRS:gndbcwq:1,2012-08-01T08:00:00Z,30.3836,-88.4364,0.0,17.4,1111122 
NERRS,ioos:station:NOAA.NERRS:gndbcwq:1,2012-08-01T09:00:00Z,30.3836,-88.4364,0.0,18.4,1111122 
NERRS,ioos:station:NOAA.NERRS:gndbcwq:1,2012-08-01T10:00:00Z,30.3836,-88.4364,0.0,19.2,1111122 
NERRS,ioos:station:NOAA.NERRS:gndbcwq:1,2012-08-01T11:00:00Z,30.3836,-88.4364,0.0,20.0,1111122 
NERRS,ioos:station:NOAA.NERRS:gndbcwq:1,2012-08-01T12:00:00Z,30.3836,-88.4364,0.0,20.6,1111122 
NERRS,ioos:station:NOAA.NERRS:gndbcwq:1,2012-08-01T13:00:00Z,30.3836,-88.4364,0.0,22.4,1111122 
NERRS,ioos:station:NOAA.NERRS:gndbcwq:1,2012-08-01T14:00:00Z,30.3836,-88.4364,0.0,23.6,1111122 
NERRS,ioos:station:NOAA.NERRS:gndbcwq:1,2012-08-01T15:00:00Z,30.3836,-88.4364,0.0,24.4,1111122 
NERRS,ioos:station:NOAA.NERRS:gndbcwq:1,2012-08-01T16:00:00Z,30.3836,-88.4364,0.0,24.4,1111122 
NERRS,ioos:station:NOAA.NERRS:gndbcwq:1,2012-08-01T17:00:00Z,30.3836,-88.4364,0.0,25.0,1111122 
NERRS,ioos:station:NOAA.NERRS:gndbcwq:1,2012-08-01T18:00:00Z,30.3836,-88.4364,0.0,24.0,1111122 
NERRS,ioos:station:NOAA.NERRS:gndbcwq:1,2012-08-01T19:00:00Z,30.3836,-88.4364,0.0,22.9,1111122 
NERRS,ioos:station:NOAA.NERRS:gndbcwq:1,2012-08-01T20:00:00Z,30.3836,-88.4364,0.0,22.9,1111122 
NERRS,ioos:station:NOAA.NERRS:gndbcwq:1,2012-08-01T21:00:00Z,30.3836,-88.4364,0.0,21.9,1111122 
NERRS,ioos:station:NOAA.NERRS:gndbcwq:1,2012-08-01T22:00:00Z,30.3836,-88.4364,0.0,20.9,1111122 
NERRS,ioos:station:NOAA.NERRS:gndbcwq:1,2012-08-01T23:00:00Z,30.3836,-88.4364,0.0,18.8,1111122 
NERRS,ioos:station:NOAA.NERRS:gndbcwq:1,2012-08-02T00:00:00Z,30.3836,-88.4364,0.0,16.7,1111122 
NERRS,ioos:station:NOAA.NERRS:gndbcwq:1,2012-08-02T01:00:00Z,30.3836,-88.4364,0.0,16.4,1111122 
NERRS,ioos:station:NOAA.NERRS:gndbcwq:1,2012-08-02T02:00:00Z,30.3836,-88.4364,0.0,15.8,1111122 
NERRS,ioos:station:NOAA.NERRS:gndbcwq:1,2012-08-02T02:30:00Z,30.3836,-88.4364,0.0,15.7,1111122 
NERRS,ioos:station:NOAA.NERRS:gndbcwq:1,2012-08-02T05:00:00Z,30.3836,-88.4364,0.0,17.0,1111122 
NERRS,ioos:station:NOAA.NERRS:gndbcwq:1,2012-08-02T06:00:00Z,30.3836,-88.4364,0.0,18.6,1111122 
NERRS,ioos:station:NOAA.NERRS:gndbcwq:1,2012-08-02T07:00:00Z,30.3836,-88.4364,0.0,18.4,1111122 
NERRS,ioos:station:NOAA.NERRS:gndbcwq:1,2012-08-02T08:00:00Z,30.3836,-88.4364,0.0,18.4,1111122 
NERRS,ioos:station:NOAA.NERRS:gndbcwq:1,2012-08-02T09:00:00Z,30.3836,-88.4364,0.0,17.8,1111122 
NERRS,ioos:station:NOAA.NERRS:gndbcwq:1,2012-08-02T10:00:00Z,30.3836,-88.4364,0.0,19.1,1111122 
NERRS,ioos:station:NOAA.NERRS:gndbcwq:1,2012-08-02T11:00:00Z,30.3836,-88.4364,0.0,20.5,1111122 
NERRS,ioos:station:NOAA.NERRS:gndbcwq:1,2012-08-02T12:00:00Z,30.3836,-88.4364,0.0,21.0,1111122 
NERRS,ioos:station:NOAA.NERRS:gndbcwq:1,2012-08-02T13:00:00Z,30.3836,-88.4364,0.0,21.1,1111122 
NERRS,ioos:station:NOAA.NERRS:gndbcwq:1,2012-08-02T14:00:00Z,30.3836,-88.4364,0.0,22.6,1111122 
NERRS,ioos:station:NOAA.NERRS:gndbcwq:1,2012-08-02T15:00:00Z,30.3836,-88.4364,0.0,23.2,1111122 
NERRS,ioos:station:NOAA.NERRS:gndbcwq:1,2012-08-02T16:00:00Z,30.3836,-88.4364,0.0,23.4,1111122 
NERRS,ioos:station:NOAA.NERRS:gndbcwq:1,2012-08-02T17:00:00Z,30.3836,-88.4364,0.0,21.7,1111122 
NERRS,ioos:station:NOAA.NERRS:gndbcwq:1,2012-08-02T18:00:00Z,30.3836,-88.4364,0.0,20.6,1111122 
NERRS,ioos:station:NOAA.NERRS:gndbcwq:1,2012-08-02T19:00:00Z,30.3836,-88.4364,0.0,20.6,1111122 
NERRS,ioos:station:NOAA.NERRS:gndbcwq:1,2012-08-02T20:00:00Z,30.3836,-88.4364,0.0,20.8,1111122 
NERRS,ioos:station:NOAA.NERRS:gndbcwq:1,2012-08-02T21:00:00Z,30.3836,-88.4364,0.0,20.3,1111122 
NERRS,ioos:station:NOAA.NERRS:gndbcwq:1,2012-08-02T22:00:00Z,30.3836,-88.4364,0.0,18.4,1111122 
NERRS,ioos:station:NOAA.NERRS:gndbcwq:1,2012-08-02T23:00:00Z,30.3836,-88.4364,0.0,14.3,1111122 
NERRS,ioos:station:NOAA.NERRS:gndbcwq:1,2012-08-03T00:00:00Z,30.3836,-88.4364,0.0,13.0,1111122 
NERRS,ioos:station:NOAA.NERRS:gndbcwq:1,2012-08-03T01:00:00Z,30.3836,-88.4364,0.0,12.8,1111122 
NERRS,ioos:station:NOAA.NERRS:gndbcwq:1,2012-08-03T02:00:00Z,30.3836,-88.4364,0.0,13.5,1111122 
NERRS,ioos:station:NOAA.NERRS:gndbcwq:1,2012-08-03T03:00:00Z,30.3836,-88.4364,0.0,13.1,1111122 
NERRS,ioos:station:NOAA.NERRS:gndbcwq:1,2012-08-03T04:00:00Z,30.3836,-88.4364,0.0,13.2,1111122 
NERRS,ioos:station:NOAA.NERRS:gndbcwq:1,2012-08-03T05:00:00Z,30.3836,-88.4364,0.0,13.2,1111122 
NERRS,ioos:station:NOAA.NERRS:gndbcwq:1,2012-08-03T06:00:00Z,30.3836,-88.4364,0.0,13.4,1111122 
NERRS,ioos:station:NOAA.NERRS:gndbcwq:1,2012-08-03T07:00:00Z,30.3836,-88.4364,0.0,13.5,1111122 
NERRS,ioos:station:NOAA.NERRS:gndbcwq:1,2012-08-03T08:00:00Z,30.3836,-88.4364,0.0,13.7,1111122 
NERRS,ioos:station:NOAA.NERRS:gndbcwq:1,2012-08-03T09:00:00Z,30.3836,-88.4364,0.0,13.8,1111122 
NERRS,ioos:station:NOAA.NERRS:gndbcwq:1,2012-08-03T10:00:00Z,30.3836,-88.4364,0.0,13.0,1111122 
NERRS,ioos:station:NOAA.NERRS:gndbcwq:1,2012-08-03T11:00:00Z,30.3836,-88.4364,0.0,13.8,1111122 
NERRS,ioos:station:NOAA.NERRS:gndbcwq:1,2012-08-03T12:00:00Z,30.3836,-88.4364,0.0,12.3,1111122 
NERRS,ioos:station:NOAA.NERRS:gndbcwq:1,2012-08-03T13:00:00Z,30.3836,-88.4364,0.0,13.2,1111122 
NERRS,ioos:station:NOAA.NERRS:gndbcwq:1,2012-08-03T14:00:00Z,30.3836,-88.4364,0.0,13.9,1111122 
NERRS,ioos:station:NOAA.NERRS:gndbcwq:1,2012-08-03T15:00:00Z,30.3836,-88.4364,0.0,15.0,1111122 
NERRS,ioos:station:NOAA.NERRS:gndbcwq:1,2012-08-03T16:00:00Z,30.3836,-88.4364,0.0,16.1,1111122 
NERRS,ioos:station:NOAA.NERRS:gndbcwq:1,2012-08-03T17:00:00Z,30.3836,-88.4364,0.0,17.5,1111122 
NERRS,ioos:station:NOAA.NERRS:gndbcwq:1,2012-08-03T18:00:00Z,30.3836,-88.4364,0.0,11.7,1111122 
NERRS,ioos:station:NOAA.NERRS:gndbcwq:1,2012-08-03T19:00:00Z,30.3836,-88.4364,0.0,10.9,1111122 
NERRS,ioos:station:NOAA.NERRS:gndbcwq:1,2012-08-03T20:00:00Z,30.3836,-88.4364,0.0,10.9,1111122 
NERRS,ioos:station:NOAA.NERRS:gndbcwq:1,2012-08-03T21:00:00Z,30.3836,-88.4364,0.0,11.9,1111122 
NERRS,ioos:station:NOAA.NERRS:gndbcwq:1,2012-08-03T22:00:00Z,30.3836,-88.4364,0.0,11.1,1111122 
NERRS,ioos:station:NOAA.NERRS:gndbcwq:1,2012-08-03T23:00:00Z,30.3836,-88.4364,0.0,9.9,1111122 
NERRS,ioos:station:NOAA.NERRS:gndbcwq:1,2012-08-04T00:00:00Z,30.3836,-88.4364,0.0,9.0,1111122 
NERRS,ioos:station:NOAA.NERRS:gndbcwq:1,2012-08-04T01:00:00Z,30.3836,-88.4364,0.0,8.3,1111122 
NERRS,ioos:station:NOAA.NERRS:gndbcwq:1,2012-08-04T02:00:00Z,30.3836,-88.4364,0.0,8.0,1111122 
NERRS,ioos:station:NOAA.NERRS:gndbcwq:1,2012-08-04T03:00:00Z,30.3836,-88.4364,0.0,7.4,1111122 
NERRS,ioos:station:NOAA.NERRS:gndbcwq:1,2012-08-04T04:00:00Z,30.3836,-88.4364,0.0,8.2,1111122 
NERRS,ioos:station:NOAA.NERRS:gndbcwq:1,2012-08-04T05:00:00Z,30.3836,-88.4364,0.0,10.9,1111122 
NERRS,ioos:station:NOAA.NERRS:gndbcwq:1,2012-08-04T06:00:00Z,30.3836,-88.4364,0.0,10.6,1111122 
NERRS,ioos:station:NOAA.NERRS:gndbcwq:1,2012-08-04T07:00:00Z,30.3836,-88.4364,0.0,13.7,1111122 
NERRS,ioos:station:NOAA.NERRS:gndbcwq:1,2012-08-04T08:00:00Z,30.3836,-88.4364,0.0,11.6,1111122 
NERRS,ioos:station:NOAA.NERRS:gndbcwq:1,2012-08-04T09:00:00Z,30.3836,-88.4364,0.0,14.6,1111122 
NERRS,ioos:station:NOAA.NERRS:gndbcwq:1,2012-08-04T10:00:00Z,30.3836,-88.4364,0.0,8.1,1111122 
NERRS,ioos:station:NOAA.NERRS:gndbcwq:1,2012-08-04T11:00:00Z,30.3836,-88.4364,0.0,13.6,1111122 
NERRS,ioos:station:NOAA.NERRS:gndbcwq:1,2012-08-04T12:00:00Z,30.3836,-88.4364,0.0,8.0,1111122 
NERRS,ioos:station:NOAA.NERRS:gndbcwq:1,2012-08-04T13:00:00Z,30.3836,-88.4364,0.0,9.8,1111122 
NERRS,ioos:station:NOAA.NERRS:gndbcwq:1,2012-08-04T14:00:00Z,30.3836,-88.4364,0.0,12.1,1111122 
NERRS,ioos:station:NOAA.NERRS:gndbcwq:1,2012-08-04T15:00:00Z,30.3836,-88.4364,0.0,11.6,1111122 
NERRS,ioos:station:NOAA.NERRS:gndbcwq:1,2012-08-04T16:00:00Z,30.3836,-88.4364,0.0,8.5,1111122 
NERRS,ioos:station:NOAA.NERRS:gndbcwq:1,2012-08-04T17:00:00Z,30.3836,-88.4364,0.0,11.4,1111122 
NERRS,ioos:station:NOAA.NERRS:gndbcwq:1,2012-08-04T18:00:00Z,30.3836,-88.4364,0.0,10.4,1111122 
NERRS,ioos:station:NOAA.NERRS:gndbcwq:1,2012-08-04T19:00:00Z,30.3836,-88.4364,0.0,13.6,1111122 
NERRS,ioos:station:NOAA.NERRS:gndbcwq:1,2012-08-04T20:00:00Z,30.3836,-88.4364,0.0,12.7,1111122 
NERRS,ioos:station:NOAA.NERRS:gndbcwq:1,2012-08-04T21:00:00Z,30.3836,-88.4364,0.0,12.6,1111122 
NERRS,ioos:station:NOAA.NERRS:gndbcwq:1,2012-08-04T22:00:00Z,30.3836,-88.4364,0.0,10.2,1111122 
NERRS,ioos:station:NOAA.NERRS:gndbcwq:1,2012-08-04T23:00:00Z,30.3836,-88.4364,0.0,8.6,1111122 
NERRS,ioos:station:NOAA.NERRS:gndbcwq:1,2012-08-05T00:00:00Z,30.3836,-88.4364,0.0,7.6,1111122 
NERRS,ioos:station:NOAA.NERRS:gndbcwq:1,2012-08-05T01:00:00Z,30.3836,-88.4364,0.0,8.2,1111122 
NERRS,ioos:station:NOAA.NERRS:gndbcwq:1,2012-08-05T02:00:00Z,30.3836,-88.4364,0.0,6.9,1111122 
NERRS,ioos:station:NOAA.NERRS:gndbcwq:1,2012-08-05T03:00:00Z,30.3836,-88.4364,0.0,6.1,1111122 
NERRS,ioos:station:NOAA.NERRS:gndbcwq:1,2012-08-05T04:00:00Z,30.3836,-88.4364,0.0,5.8,1111122 
NERRS,ioos:station:NOAA.NERRS:gndbcwq:1,2012-08-05T05:00:00Z,30.3836,-88.4364,0.0,9.4,1111122 
NERRS,ioos:station:NOAA.NERRS:gndbcwq:1,2012-08-05T06:00:00Z,30.3836,-88.4364,0.0,5.2,1111122 
NERRS,ioos:station:NOAA.NERRS:gndbcwq:1,2012-08-05T07:00:00Z,30.3836,-88.4364,0.0,12.2,1111122 
NERRS,ioos:station:NOAA.NERRS:gndbcwq:1,2012-08-05T08:00:00Z,30.3836,-88.4364,0.0,12.6,1111122 
NERRS,ioos:station:NOAA.NERRS:gndbcwq:1,2012-08-05T09:00:00Z,30.3836,-88.4364,0.0,11.8,1111122 
NERRS,ioos:station:NOAA.NERRS:gndbcwq:1,2012-08-05T10:00:00Z,30.3836,-88.4364,0.0,16.4,1111122 
NERRS,ioos:station:NOAA.NERRS:gndbcwq:1,2012-08-05T11:00:00Z,30.3836,-88.4364,0.0,4.5,1111122 
NERRS,ioos:station:NOAA.NERRS:gndbcwq:1,2012-08-05T12:00:00Z,30.3836,-88.4364,0.0,5.1,1111122 
NERRS,ioos:station:NOAA.NERRS:gndbcwq:1,2012-08-05T13:00:00Z,30.3836,-88.4364,0.0,6.3,1111122 
NERRS,ioos:station:NOAA.NERRS:gndbcwq:1,2012-08-05T14:00:00Z,30.3836,-88.4364,0.0,12.1,1111122 
NERRS,ioos:station:NOAA.NERRS:gndbcwq:1,2012-08-05T15:00:00Z,30.3836,-88.4364,0.0,14.0,1111122 
NERRS,ioos:station:NOAA.NERRS:gndbcwq:1,2012-08-05T16:00:00Z,30.3836,-88.4364,0.0,15.7,1111122 
NERRS,ioos:station:NOAA.NERRS:gndbcwq:1,2012-08-05T17:00:00Z,30.3836,-88.4364,0.0,16.3,1111122 
NERRS,ioos:station:NOAA.NERRS:gndbcwq:1,2012-08-05T18:00:00Z,30.3836,-88.4364,0.0,14.6,1111122 
NERRS,ioos:station:NOAA.NERRS:gndbcwq:1,2012-08-05T19:00:00Z,30.3836,-88.4364,0.0,13.7,1111122 
NERRS,ioos:station:NOAA.NERRS:gndbcwq:1,2012-08-05T20:00:00Z,30.3836,-88.4364,0.0,8.5,1111122 
NERRS,ioos:station:NOAA.NERRS:gndbcwq:1,2012-08-05T21:00:00Z,30.3836,-88.4364,0.0,8.8,1111122 
NERRS,ioos:station:NOAA.NERRS:gndbcwq:1,2012-08-05T22:00:00Z,30.3836,-88.4364,0.0,9.2,1111122 
NERRS,ioos:station:NOAA.NERRS:gndbcwq:1,2012-08-05T23:00:00Z,30.3836,-88.4364,0.0,7.2,1111122 
NERRS,ioos:station:NOAA.NERRS:gndbcwq:1,2012-08-06T00:00:00Z,30.3836,-88.4364,0.0,6.1,1111122 
NERRS,ioos:station:NOAA.NERRS:gndbcwq:1,2012-08-06T01:00:00Z,30.3836,-88.4364,0.0,5.8,1111122 
NERRS,ioos:station:NOAA.NERRS:gndbcwq:1,2012-08-06T02:00:00Z,30.3836,-88.4364,0.0,8.5,1111122 
NERRS,ioos:station:NOAA.NERRS:gndbcwq:1,2012-08-06T03:00:00Z,30.3836,-88.4364,0.0,6.3,1111122 
NERRS,ioos:station:NOAA.NERRS:gndbcwq:1,2012-08-06T04:00:00Z,30.3836,-88.4364,0.0,8.4,1111122 
NERRS,ioos:station:NOAA.NERRS:gndbcwq:1,2012-08-06T05:00:00Z,30.3836,-88.4364,0.0,9.6,1111122 
NERRS,ioos:station:NOAA.NERRS:gndbcwq:1,2012-08-06T06:00:00Z,30.3836,-88.4364,0.0,9.6,1111122 
NERRS,ioos:station:NOAA.NERRS:gndbcwq:1,2012-08-06T07:00:00Z,30.3836,-88.4364,0.0,7.8,1111122 
NERRS,ioos:station:NOAA.NERRS:gndbcwq:1,2012-08-06T08:00:00Z,30.3836,-88.4364,0.0,7.1,1111122 
NERRS,ioos:station:NOAA.NERRS:gndbcwq:1,2012-08-06T09:00:00Z,30.3836,-88.4364,0.0,12.0,1111122 
NERRS,ioos:station:NOAA.NERRS:gndbcwq:1,2012-08-06T10:00:00Z,30.3836,-88.4364,0.0,14.2,1111122 
NERRS,ioos:station:NOAA.NERRS:gndbcwq:1,2012-08-06T11:00:00Z,30.3836,-88.4364,0.0,8.0,1111122 
NERRS,ioos:station:NOAA.NERRS:gndbcwq:1,2012-08-06T12:00:00Z,30.3836,-88.4364,0.0,6.5,1111122 
NERRS,ioos:station:NOAA.NERRS:gndbcwq:1,2012-08-06T13:00:00Z,30.3836,-88.4364,0.0,6.4,1111122 
NERRS,ioos:station:NOAA.NERRS:gndbcwq:1,2012-08-06T14:00:00Z,30.3836,-88.4364,0.0,6.5,1111122 
NERRS,ioos:station:NOAA.NERRS:gndbcwq:1,2012-08-06T15:00:00Z,30.3836,-88.4364,0.0,10.5,1111122 
NERRS,ioos:station:NOAA.NERRS:gndbcwq:1,2012-08-06T16:00:00Z,30.3836,-88.4364,0.0,11.1,1111122 
NERRS,ioos:station:NOAA.NERRS:gndbcwq:1,2012-08-06T17:00:00Z,30.3836,-88.4364,0.0,10.6,1111122 
NERRS,ioos:station:NOAA.NERRS:gndbcwq:1,2012-08-06T18:00:00Z,30.3836,-88.4364,0.0,11.2,1111122 
NERRS,ioos:station:NOAA.NERRS:gndbcwq:1,2012-08-06T19:00:00Z,30.3836,-88.4364,0.0,15.0,1111122 
NERRS,ioos:station:NOAA.NERRS:gndbcwq:1,2012-08-06T20:00:00Z,30.3836,-88.4364,0.0,8.1,1111122 
NERRS,ioos:station:NOAA.NERRS:gndbcwq:1,2012-08-06T21:00:00Z,30.3836,-88.4364,0.0,8.6,1111122 
NERRS,ioos:station:NOAA.NERRS:gndbcwq:1,2012-08-06T22:00:00Z,30.3836,-88.4364,0.0,8.6,1111122 
NERRS,ioos:station:NOAA.NERRS:gndbcwq:1,2012-08-06T23:00:00Z,30.3836,-88.4364,0.0,7.8,1111122 
NERRS,ioos:station:NOAA.NERRS:gndbcwq:1,2012-08-07T00:00:00Z,30.3836,-88.4364,0.0,7.3,1111122 
NERRS,ioos:station:NOAA.NERRS:gndbcwq:1,2012-08-07T01:00:00Z,30.3836,-88.4364,0.0,5.8,1111122 
NERRS,ioos:station:NOAA.NERRS:gndbcwq:1,2012-08-07T02:00:00Z,30.3836,-88.4364,0.0,5.4,1111122 
NERRS,ioos:station:NOAA.NERRS:gndbcwq:1,2012-08-07T03:00:00Z,30.3836,-88.4364,0.0,6.4,1111122 
NERRS,ioos:station:NOAA.NERRS:gndbcwq:1,2012-08-07T04:00:00Z,30.3836,-88.4364,0.0,7.3,1111122 
NERRS,ioos:station:NOAA.NERRS:gndbcwq:1,2012-08-07T05:00:00Z,30.3836,-88.4364,0.0,7.9,1111122 
NERRS,ioos:station:NOAA.NERRS:gndbcwq:1,2012-08-07T06:00:00Z,30.3836,-88.4364,0.0,10.6,1111122 
NERRS,ioos:station:NOAA.NERRS:gndbcwq:1,2012-08-07T07:00:00Z,30.3836,-88.4364,0.0,10.5,1111122 
NERRS,ioos:station:NOAA.NERRS:gndbcwq:1,2012-08-07T08:00:00Z,30.3836,-88.4364,0.0,5.9,1111122 
NERRS,ioos:station:NOAA.NERRS:gndbcwq:1,2012-08-07T09:00:00Z,30.3836,-88.4364,0.0,4.5,1111122 
NERRS,ioos:station:NOAA.NERRS:gndbcwq:1,2012-08-07T10:00:00Z,30.3836,-88.4364,0.0,10.9,1111122 
NERRS,ioos:station:NOAA.NERRS:gndbcwq:1,2012-08-07T11:00:00Z,30.3836,-88.4364,0.0,6.0,1111122 
NERRS,ioos:station:NOAA.NERRS:gndbcwq:1,2012-08-07T12:00:00Z,30.3836,-88.4364,0.0,3.7,1111122 
NERRS,ioos:station:NOAA.NERRS:gndbcwq:1,2012-08-07T13:00:00Z,30.3836,-88.4364,0.0,3.8,1111122 
NERRS,ioos:station:NOAA.NERRS:gndbcwq:1,2012-08-07T14:00:00Z,30.3836,-88.4364,0.0,3.3,1111122 
NERRS,ioos:station:NOAA.NERRS:gndbcwq:1,2012-08-07T15:00:00Z,30.3836,-88.4364,0.0,2.8,1111122 
NERRS,ioos:station:NOAA.NERRS:gndbcwq:1,2012-08-07T16:00:00Z,30.3836,-88.4364,0.0,4.9,1111122 
NERRS,ioos:station:NOAA.NERRS:gndbcwq:1,2012-08-07T17:00:00Z,30.3836,-88.4364,0.0,2.4,1111122 
NERRS,ioos:station:NOAA.NERRS:gndbcwq:1,2012-08-07T18:00:00Z,30.3836,-88.4364,0.0,3.1,1111122 
NERRS,ioos:station:NOAA.NERRS:gndbcwq:1,2012-08-07T19:00:00Z,30.3836,-88.4364,0.0,2.0,1111122 
NERRS,ioos:station:NOAA.NERRS:gndbcwq:1,2012-08-07T20:00:00Z,30.3836,-88.4364,0.0,1.8,1111122 
NERRS,ioos:station:NOAA.NERRS:gndbcwq:1,2012-08-07T21:00:00Z,30.3836,-88.4364,0.0,1.8,1111122 
NERRS,ioos:station:NOAA.NERRS:gndbcwq:1,2012-08-07T22:00:00Z,30.3836,-88.4364,0.0,2.6,1111122 
NERRS,ioos:station:NOAA.NERRS:gndbcwq:1,2012-08-07T23:00:00Z,30.3836,-88.4364,0.0,3.1,1111122 
NERRS,ioos:station:NOAA.NERRS:gndbcwq:1,2012-08-08T00:00:00Z,30.3836,-88.4364,0.0,2.7,1111122 
NERRS,ioos:station:NOAA.NERRS:gndbcwq:1,2012-08-08T01:00:00Z,30.3836,-88.4364,0.0,2.7,1111122 
NERRS,ioos:station:NOAA.NERRS:gndbcwq:1,2012-08-08T02:00:00Z,30.3836,-88.4364,0.0,3.6,1111122 
NERRS,ioos:station:NOAA.NERRS:gndbcwq:1,2012-08-08T03:00:00Z,30.3836,-88.4364,0.0,4.8,1111122 
NERRS,ioos:station:NOAA.NERRS:gndbcwq:1,2012-08-08T04:00:00Z,30.3836,-88.4364,0.0,9.4,1111122 
NERRS,ioos:station:NOAA.NERRS:gndbcwq:1,2012-08-08T05:00:00Z,30.3836,-88.4364,0.0,12.3,1111122 
NERRS,ioos:station:NOAA.NERRS:gndbcwq:1,2012-08-08T06:00:00Z,30.3836,-88.4364,0.0,14.3,1111122 
NERRS,ioos:station:NOAA.NERRS:gndbcwq:1,2012-08-08T07:00:00Z,30.3836,-88.4364,0.0,14.9,1111122 
NERRS,ioos:station:NOAA.NERRS:gndbcwq:1,2012-08-08T08:00:00Z,30.3836,-88.4364,0.0,18.9,1111122 
NERRS,ioos:station:NOAA.NERRS:gndbcwq:1,2012-08-08T09:00:00Z,30.3836,-88.4364,0.0,20.0,1111122 
NERRS,ioos:station:NOAA.NERRS:gndbcwq:1,2012-08-08T10:00:00Z,30.3836,-88.4364,0.0,18.3,1111122 
NERRS,ioos:station:NOAA.NERRS:gndbcwq:1,2012-08-08T11:00:00Z,30.3836,-88.4364,0.0,18.2,1111122 
NERRS,ioos:station:NOAA.NERRS:gndbcwq:1,2012-08-08T12:00:00Z,30.3836,-88.4364,0.0,17.3,1111122 
NERRS,ioos:station:NOAA.NERRS:gndbcwq:1,2012-08-08T13:00:00Z,30.3836,-88.4364,0.0,4.6,1111122 
NERRS,ioos:station:NOAA.NERRS:gndbcwq:1,2012-08-08T14:00:00Z,30.3836,-88.4364,0.0,4.0,1111122 
NERRS,ioos:station:NOAA.NERRS:gndbcwq:1,2012-08-08T15:00:00Z,30.3836,-88.4364,0.0,3.5,1111122 
NERRS,ioos:station:NOAA.NERRS:gndbcwq:1,2012-08-08T16:00:00Z,30.3836,-88.4364,0.0,3.4,1111122 
NERRS,ioos:station:NOAA.NERRS:gndbcwq:1,2012-08-08T17:00:00Z,30.3836,-88.4364,0.0,3.3,1111122 
NERRS,ioos:station:NOAA.NERRS:gndbcwq:1,2012-08-08T18:00:00Z,30.3836,-88.4364,0.0,3.3,1111122 
NERRS,ioos:station:NOAA.NERRS:gndbcwq:1,2012-08-08T19:00:00Z,30.3836,-88.4364,0.0,6.8,1111122 
NERRS,ioos:station:NOAA.NERRS:gndbcwq:1,2012-08-08T20:00:00Z,30.3836,-88.4364,0.0,3.1,1111122 
NERRS,ioos:station:NOAA.NERRS:gndbcwq:1,2012-08-08T21:00:00Z,30.3836,-88.4364,0.0,3.1,1111122 
NERRS,ioos:station:NOAA.NERRS:gndbcwq:1,2012-08-08T22:00:00Z,30.3836,-88.4364,0.0,2.9,1111122 
NERRS,ioos:station:NOAA.NERRS:gndbcwq:1,2012-08-08T23:00:00Z,30.3836,-88.4364,0.0,4.3,1111122 
NERRS,ioos:station:NOAA.NERRS:gndbcwq:1,2012-08-09T00:00:00Z,30.3836,-88.4364,0.0,4.1,1111122 
NERRS,ioos:station:NOAA.NERRS:gndbcwq:1,2012-08-09T01:00:00Z,30.3836,-88.4364,0.0,4.3,1111122 
NERRS,ioos:station:NOAA.NERRS:gndbcwq:1,2012-08-09T02:00:00Z,30.3836,-88.4364,0.0,4.6,1111122 
NERRS,ioos:station:NOAA.NERRS:gndbcwq:1,2012-08-09T03:00:00Z,30.3836,-88.4364,0.0,6.0,1111122 
NERRS,ioos:station:NOAA.NERRS:gndbcwq:1,2012-08-09T04:00:00Z,30.3836,-88.4364,0.0,10.0,1111122 
NERRS,ioos:station:NOAA.NERRS:gndbcwq:1,2012-08-09T05:00:00Z,30.3836,-88.4364,0.0,9.8,1111122 
NERRS,ioos:station:NOAA.NERRS:gndbcwq:1,2012-08-09T06:00:00Z,30.3836,-88.4364,0.0,13.5,1111122 
NERRS,ioos:station:NOAA.NERRS:gndbcwq:1,2012-08-09T07:00:00Z,30.3836,-88.4364,0.0,17.6,1111122 
NERRS,ioos:station:NOAA.NERRS:gndbcwq:1,2012-08-09T08:00:00Z,30.3836,-88.4364,0.0,17.5,1111122 
NERRS,ioos:station:NOAA.NERRS:gndbcwq:1,2012-08-09T09:00:00Z,30.3836,-88.4364,0.0,18.3,1111122 
NERRS,ioos:station:NOAA.NERRS:gndbcwq:1,2012-08-09T10:00:00Z,30.3836,-88.4364,0.0,20.5,1111122 
NERRS,ioos:station:NOAA.NERRS:gndbcwq:1,2012-08-09T11:00:00Z,30.3836,-88.4364,0.0,11.9,1111122 
NERRS,ioos:station:NOAA.NERRS:gndbcwq:1,2012-08-09T12:00:00Z,30.3836,-88.4364,0.0,20.5,1111122 
NERRS,ioos:station:NOAA.NERRS:gndbcwq:1,2012-08-09T13:00:00Z,30.3836,-88.4364,0.0,6.9,1111122 
NERRS,ioos:station:NOAA.NERRS:gndbcwq:1,2012-08-09T14:00:00Z,30.3836,-88.4364,0.0,5.5,1111122 
NERRS,ioos:station:NOAA.NERRS:gndbcwq:1,2012-08-09T15:00:00Z,30.3836,-88.4364,0.0,5.1,1111122 
NERRS,ioos:station:NOAA.NERRS:gndbcwq:1,2012-08-09T16:00:00Z,30.3836,-88.4364,0.0,5.2,1111122 
NERRS,ioos:station:NOAA.NERRS:gndbcwq:1,2012-08-09T17:00:00Z,30.3836,-88.4364,0.0,4.8,1111122 
NERRS,ioos:station:NOAA.NERRS:gndbcwq:1,2012-08-09T18:00:00Z,30.3836,-88.4364,0.0,4.9,1111122 
NERRS,ioos:station:NOAA.NERRS:gndbcwq:1,2012-08-09T19:00:00Z,30.3836,-88.4364,0.0,4.5,1111122 
NERRS,ioos:station:NOAA.NERRS:gndbcwq:1,2012-08-09T20:00:00Z,30.3836,-88.4364,0.0,4.5,1111122 
NERRS,ioos:station:NOAA.NERRS:gndbcwq:1,2012-08-09T21:00:00Z,30.3836,-88.4364,0.0,4.7,1111122 
NERRS,ioos:station:NOAA.NERRS:gndbcwq:1,2012-08-09T22:00:00Z,30.3836,-88.4364,0.0,5.6,1111122 
NERRS,ioos:station:NOAA.NERRS:gndbcwq:1,2012-08-09T23:00:00Z,30.3836,-88.4364,0.0,5.2,1111122 
NERRS,ioos:station:NOAA.NERRS:gndbcwq:1,2012-08-10T00:00:00Z,30.3836,-88.4364,0.0,5.0,1111122 
NERRS,ioos:station:NOAA.NERRS:gndbcwq:1,2012-08-10T01:00:00Z,30.3836,-88.4364,0.0,5.0,1111122 
NERRS,ioos:station:NOAA.NERRS:gndbcwq:1,2012-08-10T02:00:00Z,30.3836,-88.4364,0.0,5.4,1111122 
NERRS,ioos:station:NOAA.NERRS:gndbcwq:1,2012-08-10T03:00:00Z,30.3836,-88.4364,0.0,5.5,1111122 
NERRS,ioos:station:NOAA.NERRS:gndbcwq:1,2012-08-10T04:00:00Z,30.3836,-88.4364,0.0,5.7,1111122 
NERRS,ioos:station:NOAA.NERRS:gndbcwq:1,2012-08-10T05:00:00Z,30.3836,-88.4364,0.0,6.2,1111122 
NERRS,ioos:station:NOAA.NERRS:gndbcwq:1,2012-08-10T06:00:00Z,30.3836,-88.4364,0.0,9.7,1111122 
NERRS,ioos:station:NOAA.NERRS:gndbcwq:1,2012-08-10T07:00:00Z,30.3836,-88.4364,0.0,11.3,1111122 
NERRS,ioos:station:NOAA.NERRS:gndbcwq:1,2012-08-10T08:00:00Z,30.3836,-88.4364,0.0,13.2,1111122 
NERRS,ioos:station:NOAA.NERRS:gndbcwq:1,2012-08-10T09:00:00Z,30.3836,-88.4364,0.0,16.0,1111122 
NERRS,ioos:station:NOAA.NERRS:gndbcwq:1,2012-08-10T10:00:00Z,30.3836,-88.4364,0.0,16.8,1111122 
NERRS,ioos:station:NOAA.NERRS:gndbcwq:1,2012-08-10T11:00:00Z,30.3836,-88.4364,0.0,13.5,1111122 
NERRS,ioos:station:NOAA.NERRS:gndbcwq:1,2012-08-10T12:00:00Z,30.3836,-88.4364,0.0,9.7,1111122 
NERRS,ioos:station:NOAA.NERRS:gndbcwq:1,2012-08-10T13:00:00Z,30.3836,-88.4364,0.0,8.7,1111122 
NERRS,ioos:station:NOAA.NERRS:gndbcwq:1,2012-08-10T14:00:00Z,30.3836,-88.4364,0.0,9.0,1111122 
NERRS,ioos:station:NOAA.NERRS:gndbcwq:1,2012-08-10T15:00:00Z,30.3836,-88.4364,0.0,8.5,1111122 
NERRS,ioos:station:NOAA.NERRS:gndbcwq:1,2012-08-10T16:00:00Z,30.3836,-88.4364,0.0,8.4,1111122 
NERRS,ioos:station:NOAA.NERRS:gndbcwq:1,2012-08-10T17:00:00Z,30.3836,-88.4364,0.0,8.0,1111122 
NERRS,ioos:station:NOAA.NERRS:gndbcwq:1,2012-08-10T18:00:00Z,30.3836,-88.4364,0.0,6.9,1111122 
NERRS,ioos:station:NOAA.NERRS:gndbcwq:1,2012-08-10T19:00:00Z,30.3836,-88.4364,0.0,6.2,1111122 
NERRS,ioos:station:NOAA.NERRS:gndbcwq:1,2012-08-10T20:00:00Z,30.3836,-88.4364,0.0,6.9,1111122 
NERRS,ioos:station:NOAA.NERRS:gndbcwq:1,2012-08-10T21:00:00Z,30.3836,-88.4364,0.0,5.2,1111122 
NERRS,ioos:station:NOAA.NERRS:gndbcwq:1,2012-08-10T22:00:00Z,30.3836,-88.4364,0.0,5.2,1111122 
NERRS,ioos:station:NOAA.NERRS:gndbcwq:1,2012-08-10T23:00:00Z,30.3836,-88.4364,0.0,4.9,1111122 
NERRS,ioos:station:NOAA.NERRS:gndbcwq:1,2012-08-11T00:00:00Z,30.3836,-88.4364,0.0,5.3,1111122 
NERRS,ioos:station:NOAA.NERRS:gndbcwq:1,2012-08-11T01:00:00Z,30.3836,-88.4364,0.0,5.4,1111122 
NERRS,ioos:station:NOAA.NERRS:gndbcwq:1,2012-08-11T02:00:00Z,30.3836,-88.4364,0.0,5.8,1111122 
NERRS,ioos:station:NOAA.NERRS:gndbcwq:1,2012-08-11T03:00:00Z,30.3836,-88.4364,0.0,5.5,1111122 
NERRS,ioos:station:NOAA.NERRS:gndbcwq:1,2012-08-11T04:00:00Z,30.3836,-88.4364,0.0,6.7,1111122 
NERRS,ioos:station:NOAA.NERRS:gndbcwq:1,2012-08-11T05:00:00Z,30.3836,-88.4364,0.0,6.7,1111122 
NERRS,ioos:station:NOAA.NERRS:gndbcwq:1,2012-08-11T06:00:00Z,30.3836,-88.4364,0.0,6.5,1111122 
NERRS,ioos:station:NOAA.NERRS:gndbcwq:1,2012-08-11T07:00:00Z,30.3836,-88.4364,0.0,9.7,1111122 
NERRS,ioos:station:NOAA.NERRS:gndbcwq:1,2012-08-11T08:00:00Z,30.3836,-88.4364,0.0,9.1,1111122 
NERRS,ioos:station:NOAA.NERRS:gndbcwq:1,2012-08-11T09:00:00Z,30.3836,-88.4364,0.0,13.6,1111122 
NERRS,ioos:station:NOAA.NERRS:gndbcwq:1,2012-08-11T10:00:00Z,30.3836,-88.4364,0.0,15.6,1111122 